Zurück zum Katalog

COSMOS 1275 DEB

LostPO
NORAD 42165·DEBRIS·🇷🇺 Russia

Gestartet Jun 4, 1981 von Plesetsk Cosmodrome

Loading…

Nächste Überflüge (nächste 24 Stunden)

TLE

VeraltetSource: Space-Track

Epoche: Nov 24, 2023, 14:57 UTC

1 42165U 81053SD  23328.62360161  .00008951  00000-0  45293-2 0  9996
2 42165  82.7362 283.3150 0044149 295.7505 188.1433 14.15505236  1961

Verfolge COSMOS 1275 DEB in Echtzeit mit AllMySat

Download on the App Store